Glendive, MT

11:46 PM MST on February 26, 2017 (GMT -0700)
Dawson Community

Weather History for KGDV - October, 2011

Change the Weather History Date:

Tuesday, October 25, 2011

  Actual Average Record
Temperature  
Mean Temperature 36 °F -  
Max Temperature 44 °F 49 °F 66 °F (2014)
Min Temperature 28 °F 28 °F 14 °F (1997)
Degree Days  
Heating Degree Days 29    
Moisture  
Dew Point 32 °F    
Average Humidity 83    
Maximum Humidity 93    
Minimum Humidity 66    
Precipitation  
Precipitation 0.05 in - - ()
Sea Level Pressure  
Sea Level Pressure 30.12 in    
Wind  
Wind Speed 8 mph (WNW)    
Max Wind Speed 23 mph    
Max Gust Speed 30 mph    
Visibility 10 miles    
Events      
Averages and records for this station are not official NWS values.
T = Trace of Precipitation, MM = Missing Value Source: NWS Daily Summary

Daily Weather History Graph

Daily Weather History Graph

Search for Another Location

Airport or City:

Trip Planner

Search our weather history database for the weather conditions in past years. The results will help you decide how hot, cold, wet, or windy it might be!

Date:

Astronomy

Oct. 25, 2011 Rise Set
Actual Time 7:31 AM MDT 5:54 PM MDT
Civil Twilight 7:00 AM MDT 6:25 PM MDT
Nautical Twilight 6:24 AM MDT 7:01 PM MDT
Astronomical Twilight 5:49 AM MDT 7:36 PM MDT
Moon 6:05 AM MDT (10/25) 4:57 PM MDT (10/25)
Length of Visible Light 11h 25m
Length of Day
10h 22m
Waning Crescent, 2% of the Moon is Illuminated
Oct 25
Waning Crescent
Oct 26
New
Nov 2
First Quarter
Nov 10
Full
Nov 18
Last Quarter

Hourly Weather History & Observations

Time (MDT) Temp. Windchill Dew Point Humidity Pressure Visibility Wind Dir Wind Speed Gust Speed Precip Events Conditions
12:15 AM 41.0 °F - 37.4 °F 87% 30.00 in 10.0 mi Calm Calm - N/A   Overcast
12:35 AM 39.2 °F - 37.4 °F 93% 30.01 in 10.0 mi Calm Calm - N/A   Overcast
12:55 AM 41.0 °F 39.0 °F 39.2 °F 93% 30.00 in 10.0 mi SE 3.5 mph - N/A   Overcast
1:35 AM 39.2 °F 37.0 °F 37.4 °F 93% 30.01 in 10.0 mi WSW 3.5 mph - N/A   Overcast
1:55 AM 39.2 °F 35.9 °F 37.4 °F 93% 30.00 in 10.0 mi West 4.6 mph - N/A   Overcast
2:15 AM 39.2 °F 35.9 °F 37.4 °F 93% 30.00 in 10.0 mi West 4.6 mph - N/A   Overcast
2:35 AM 39.2 °F 37.0 °F 37.4 °F 93% 30.00 in 10.0 mi WSW 3.5 mph - N/A   Overcast
3:15 AM 41.0 °F 37.1 °F 39.2 °F 93% 30.00 in 9.0 mi South 5.8 mph - N/A   Overcast
3:35 AM 41.0 °F 38.0 °F 37.4 °F 87% 30.00 in 10.0 mi SSW 4.6 mph - N/A   Overcast
3:55 AM 41.0 °F 38.0 °F 37.4 °F 87% 30.01 in 10.0 mi SW 4.6 mph - N/A   Overcast
4:15 AM 41.0 °F 37.1 °F 37.4 °F 87% 30.00 in 10.0 mi SW 5.8 mph - N/A   Overcast
4:55 AM 39.2 °F 35.0 °F 35.6 °F 87% 30.01 in 10.0 mi West 5.8 mph - N/A   Scattered Clouds
5:55 AM 39.2 °F 32.5 °F 37.4 °F 93% 30.02 in 10.0 mi WNW 10.4 mph - N/A   Partly Cloudy
6:15 AM 39.2 °F 32.0 °F 35.6 °F 87% 30.03 in 10.0 mi WNW 11.5 mph - N/A   Partly Cloudy
6:55 AM 35.6 °F 28.0 °F 32.0 °F 87% 30.03 in 10.0 mi WNW 10.4 mph - N/A   Clear
7:15 AM 35.6 °F 28.0 °F 30.2 °F 81% 30.04 in 10.0 mi West 10.4 mph - N/A   Clear
7:35 AM 35.6 °F 29.2 °F 30.2 °F 81% 30.04 in 10.0 mi West 8.1 mph - N/A   Clear
7:55 AM 33.8 °F 29.6 °F 30.2 °F 87% 30.06 in 10.0 mi West 4.6 mph - N/A   Mostly Cloudy
8:15 AM 37.4 °F 32.1 °F 33.8 °F 87% 30.06 in 10.0 mi WNW 6.9 mph - N/A   Overcast
8:55 AM 37.4 °F 28.9 °F 33.8 °F 87% 30.07 in 10.0 mi WNW 13.8 mph 20.7 mph N/A   Mostly Cloudy
9:15 AM 37.4 °F 27.8 °F 33.8 °F 87% 30.08 in 10.0 mi WNW 17.3 mph - N/A   Scattered Clouds
9:35 AM 37.4 °F 27.2 °F 33.8 °F 87% 30.08 in 10.0 mi WNW 19.6 mph 25.3 mph N/A   Partly Cloudy
10:15 AM 39.2 °F 29.3 °F 33.8 °F 81% 30.10 in 10.0 mi WNW 20.7 mph 28.8 mph N/A   Scattered Clouds
10:35 AM 39.2 °F 29.8 °F 33.8 °F 81% 30.11 in 10.0 mi NW 18.4 mph 29.9 mph N/A   Overcast
11:15 AM 39.2 °F 29.0 °F 33.8 °F 81% 30.12 in 10.0 mi WNW 21.9 mph 27.6 mph N/A   Overcast
11:55 AM 39.2 °F 29.3 °F 33.8 °F 81% 30.13 in 10.0 mi NW 20.7 mph 27.6 mph N/A   Overcast
12:15 PM 37.4 °F 26.4 °F 32.0 °F 81% 30.14 in 10.0 mi NW 23.0 mph 28.8 mph N/A   Overcast
12:35 PM 37.4 °F 27.8 °F 33.8 °F 87% 30.15 in 10.0 mi NW 17.3 mph 23.0 mph N/A   Overcast
12:55 PM 37.4 °F 27.5 °F 33.8 °F 87% 30.15 in 10.0 mi NW 18.4 mph 21.9 mph N/A   Overcast
1:15 PM 39.2 °F 30.2 °F 33.8 °F 81% 30.15 in 10.0 mi NW 17.3 mph 23.0 mph N/A   Overcast
1:55 PM 41.0 °F 33.1 °F 33.8 °F 76% 30.14 in 10.0 mi NW 15.0 mph 20.7 mph N/A   Overcast
2:15 PM 41.0 °F 33.5 °F 32.0 °F 70% 30.14 in 10.0 mi NW 13.8 mph 19.6 mph N/A   Overcast
2:35 PM 42.8 °F 34.0 °F 32.0 °F 66% 30.14 in 10.0 mi NW 20.7 mph 24.2 mph N/A   Overcast
2:55 PM 42.8 °F 34.0 °F 35.6 °F 76% 30.14 in 10.0 mi NW 20.7 mph 26.5 mph N/A   Overcast
3:15 PM 44.6 °F 36.6 °F 35.6 °F 71% 30.15 in 10.0 mi NW 19.6 mph 25.3 mph N/A   Overcast
3:35 PM 41.0 °F 31.6 °F 33.8 °F 76% 30.16 in 10.0 mi NNW 20.7 mph 28.8 mph N/A   Mostly Cloudy
3:55 PM 42.8 °F 34.3 °F 33.8 °F 70% 30.17 in 10.0 mi NW 19.6 mph 27.6 mph N/A   Overcast
4:35 PM 41.0 °F 34.7 °F 32.0 °F 70% 30.19 in 10.0 mi NNE 10.4 mph - N/A   Overcast
5:35 PM 39.2 °F 34.2 °F 32.0 °F 75% 30.19 in 10.0 mi NW 6.9 mph - N/A   Clear
5:55 PM 37.4 °F 30.8 °F 30.2 °F 75% 30.19 in 10.0 mi WNW 9.2 mph - N/A   Clear
6:15 PM 35.6 °F 28.6 °F 28.4 °F 75% 30.20 in 10.0 mi WNW 9.2 mph - N/A   Clear
6:55 PM 33.8 °F 27.0 °F 28.4 °F 81% 30.21 in 10.0 mi NW 8.1 mph - N/A   Clear
7:35 PM 32.0 °F 24.8 °F 26.6 °F 80% 30.22 in 10.0 mi WNW 8.1 mph - N/A   Clear
8:15 PM 30.2 °F 21.9 °F 26.6 °F 86% 30.23 in 10.0 mi WNW 9.2 mph - N/A   Scattered Clouds
8:35 PM 33.8 °F 29.6 °F 28.4 °F 81% 30.23 in 10.0 mi WNW 4.6 mph - N/A   Mostly Cloudy
8:55 PM 33.8 °F 24.8 °F 26.6 °F 75% 30.24 in 10.0 mi West 12.7 mph - N/A   Scattered Clouds
9:15 PM 33.8 °F 27.0 °F 28.4 °F 81% 30.24 in 10.0 mi NW 8.1 mph - N/A   Clear
9:35 PM 30.2 °F 21.9 °F 26.6 °F 86% 30.24 in 10.0 mi WNW 9.2 mph - N/A   Clear
9:55 PM 30.2 °F 21.9 °F 26.6 °F 86% 30.24 in 10.0 mi WNW 9.2 mph - N/A   Clear
10:15 PM 30.2 °F 21.9 °F 26.6 °F 86% 30.25 in 10.0 mi WNW 9.2 mph - N/A   Clear
10:35 PM 30.2 °F 20.8 °F 24.8 °F 80% 30.25 in 10.0 mi West 11.5 mph - N/A   Clear
10:55 PM 30.2 °F 21.9 °F 26.6 °F 86% 30.25 in 10.0 mi WNW 9.2 mph - N/A   Clear
11:15 PM 28.4 °F 20.4 °F 24.8 °F 86% 30.25 in 10.0 mi WNW 8.1 mph - N/A   Clear
11:35 PM 28.4 °F 21.2 °F 23.0 °F 80% 30.25 in 10.0 mi WNW 6.9 mph - N/A   Clear